Location: Eurasberg
(48.3353°N, 11.0839°E)
Time: 17:15:50
(UTC+00:00)

Lacrosse 5 rocket - Visible Passes

Search period start: 11 April 2026 00:00
Search period end: 21 April 2026 00:00
Orbit: 391 x 478 km, 57.0° (Epoch: 11 April)

Date Brightness Start Highest point End Pass type
(mag) Time Alt. Az. Time Alt. Az. Time Alt. Az.
11 Apr 2.7 03:11:58 15° S 03:11:58 15° S 03:12:52 10° S visible
11 Apr 0.5 19:56:37 10° SW 19:59:49 86° NW 20:00:41 45° NE visible
12 Apr 0.6 19:14:24 10° SW 19:17:34 60° SE 19:20:43 10° ENE visible
12 Apr 2.7 20:51:37 10° W 20:54:24 27° NNW 20:54:38 26° NNW visible
13 Apr 1.2 18:32:20 10° SSW 18:35:20 37° SE 18:38:19 10° ENE visible
13 Apr 2.3 20:09:01 10° W 20:11:58 34° NNW 20:14:39 12° NE visible
13 Apr 3.9 21:47:05 10° NW 21:47:58 14° NW 21:47:58 14° NW visible
14 Apr 1.7 19:26:27 10° WSW 19:29:34 47° NNW 19:32:40 10° NE visible
14 Apr 3.3 21:04:26 10° NW 21:06:47 18° N 21:07:35 17° N visible
15 Apr 1.0 18:43:58 10° WSW 18:47:10 70° NW 18:50:21 10° NE visible
15 Apr 3.2 20:21:44 10° WNW 20:24:15 21° NNW 20:26:45 10° NE visible
15 Apr 3.9 21:59:24 10° NW 22:00:14 14° NNW 22:00:14 14° NNW visible
16 Apr 3.0 19:39:00 10° WNW 19:41:42 24° NNW 19:44:23 10° NE visible
16 Apr 3.3 21:16:55 10° NW 21:19:09 17° N 21:19:24 17° N visible
17 Apr 2.6 18:56:14 10° W 18:59:08 30° NNW 19:02:01 10° NE visible
17 Apr 3.4 20:34:18 10° NW 20:36:31 17° N 20:38:27 11° NE visible
17 Apr 3.9 22:11:11 10° NW 22:11:43 13° NW 22:11:43 13° NW visible
18 Apr 3.3 19:51:35 10° NW 19:53:51 18° N 19:56:08 10° NE visible
18 Apr 3.2 21:28:47 10° NW 21:30:41 20° N 21:30:41 20° N visible
19 Apr 3.2 19:08:46 10° WNW 19:11:12 19° NNW 19:13:37 10° NE visible
19 Apr 3.0 20:46:18 10° NW 20:48:41 19° N 20:49:36 17° NNE visible
19 Apr 4.0 22:22:43 10° NW 22:22:51 11° NW 22:22:51 11° NW visible
20 Apr 3.2 20:03:43 10° NW 20:05:59 18° N 20:08:15 10° NE visible
20 Apr 3.2 21:40:16 10° NW 21:41:42 22° NNW 21:41:42 22° NNW visible
